Lid_Strength_Index
12 13 13 14 14 15 14 14 15 16 16 16 16 16 16 16 16 16 16 17 18 17
13 14 15 15 15 15 14 14 16 17 17 17 17 16 16 16 16 17 17 17 17 17
14 15 15 15 15 15 15 16 17 17 17 17 16 16 17 17 16 17 17 16 17 17
15 15 15 16 16 16 16 17 17 17 17 16 16 17 17 17 17 17 17 17 17 16
16 16 16 16 16 16 17 17 17 17 17 16 17 17 17 17 17 17 17 17 16 16
16 16 16 16 17 17 17 17 17 17 17 17 16 17 17 17 17 17 16 16 16 16
16 16 16 16 17 16 17 17 17 17 17 17 17 16 17 16 17 16 15 15 15 15
16 16 16 16 17 17 17 18 18 17 17 17 17 16 15 15 15 16 16 16 16 15
16 16 16 17 17 18 18 18 17 17 18 18 16 14 12 12 15 16 16 17 16 15
16 16 17 17 18 18 18 18 17 18 18 18 19 13 12 11 15 16 16 16 16 15
16 17 17 18 18 19 18 18 18 18 18 19 17 13 12 11 15 16 16 16 16 15
17 17 18 19 19 18 18 19 19 19 19 19 18 13 12 12 16 16 16 15 15 14
17 18 19 18 19 19 19 19 19 18 18 16 18 14 12 13 15 16 15 15 14 10
18 18 18 19 19 19 20 19 20 19 18 18 17 17 12 12 14 14 14 13 12 11